Find Starlink 37027

NORAD ID: 68232 Int'l Des: 2026-054 Owner: SPXS Country: US Constellation: starlink operational
LEOCIRCULAR

Current View

Loading 3D Globe...

About Starlink 37027

Starlink 37027 (NORAD 68232) is a starlink constellation satellite (v2 mini) launched Mar 17, 2026 by SPXS of US. It operates in LEO, CIRCULAR orbit with a mass of 575.00 kg.

About Starlink 37027

Description loading...

Upcoming Passes

Passes for default location (London). Set your location on the main map for personalized predictions.

Altitude History

Loading altitude history...

Two-Line Element Set

1 68232U 26054A 26167.30414563 .00014123 00000-0 42825-3 0 9991
2 68232 53.1571 191.4066 0001185 114.2197 245.8929 15.34407490 14193
Epoch: Jun 16, 2026 • Age: 8 hours

Current Status

Altitude 464.0 km
Velocity 7.64 km/s
Sub-Earth Point -0.43°S, 57.97°E
Launch Date Mar 17, 2026
Age 0.2 years
Type internet

Technical Details

Classification Payload
Mass 575.00 kg
Dry Mass 530.00 kg
Total Mass 575.00 kg
Length 0.30 m
Diameter 4.10 m
Span 29.00 m
Shape Box + pan
Manufacturer SPXS
Bus Type Starlink V2MO
Phase Status In Orbit
Owner/State SPXS/US

Most Searched